Location: Alpine
(43.1636°N, 111.0180°W)
Time: 05:41:15
(UTC+00:00)

Tiros 1 despin weight - Pass Details

Date: 27 May 2022
Orbit: 591 x 639 km, 48.2° (Epoch: 30 June)

Event Time Altitude Azimuth Distance (km) Brightness Sun altitude
Rises 04:59:46 0° 290° (WNW) 2,849 ? -17.8°
Reaches altitude 10° 05:02:08 10° 296° (WNW) 1,938 ? -18.0°
Maximum altitude 05:06:28 50° 12° (NNE) 761 ? -18.5°
Enters shadow 05:09:37 17° 83° (E) 1,506 ? -18.8°
Drops below altitude 10° 05:10:44 10° 88° (E) 1,919 - -18.9°
Sets 05:13:04 0° 94° (E) 2,817 - -19.1°
